Regional Weather Roundup
Issued by NWS State College, PA

Home | Current Version | Previous Version | Text Only | Print | Product List | Glossary On
Versions: 1 2 3 4 5 6 7 8 9 10 11 12 13 14 15 16 17 18 19 20 21 22 23 24 25 26 27 28 29 30 31 32 33 34 35 36 37 38 39 40 41 42 43 44 45 46 47 48 49 50
000
ASUS41 KCTP 250203
RWRCTP

REGIONAL WEATHER ROUNDUP
NATIONAL WEATHER SERVICE STATE COLLEGE PA
900 PM EST SAT FEB 24 2018

Note: "fair" indicates few or no clouds below 12,000 feet with no
significant weather and/or obstructions to visibility.

* = STATION THAT DOES NOT REPORT PRECIPITATION /E.G. RAIN...SNOW...ETC/
    THUNDER OR FOG.

PAZ002>004-007>009-013>016-020>023-029>032-250300-
WESTERN PENNSYLVANIA

CITY           SKY/WX    TMP DP  RH WIND       PRES   REMARKS
ERIE           CLOUDY    38  32  79 NE9       30.03F
MEADVILLE      CLOUDY    42  41  96 E5        29.99F
FRANKLIN*      CLOUDY    43  40  89 E14       30.00F
NEW CASTLE     FAIR      47  44  90 SE7       29.99F
BEAVER COUNTY  NOT AVBL
BUTLER*        LGT RAIN  45  42  89 E12       30.01F
PITTSBURGH INT CLOUDY    46  44  93 E9        29.98F
PITTSBURGH     CLOUDY    47  43  86 E8        29.99F
INDIANA*       CLOUDY    46  45  93 SE9       30.08F FOG
LATROBE        CLOUDY    48  45  87 SE12      30.04F
WASHINGTON CO* LGT RAIN  48  46  93 E5        30.01F
$$

PAZ004>006-010>012-017>019-024>028-033>037-041-042-045-046-049>053-250300-
CENTRAL PENNSYLVANIA

CITY           SKY/WX    TMP DP  RH WIND       PRES   REMARKS
BRADFORD       CLOUDY    40  39  97 SE8       30.05F
DUBOIS         CLOUDY    42  38  85 SE14      30.05F
CLEARFIELD     CLOUDY    43  41  93 E5        30.10F
JOHNSTOWN      CLOUDY    42  40  92 SE10      30.07S
ALTOONA        CLOUDY    44  42  93 SE6       30.12S
STATE COLLEGE  CLOUDY    41  41 100 CALM      30.15S
WILLIAMSPORT   CLOUDY    44  42  93 E10       30.15F
SELINSGROVE    CLOUDY    43  42  97 CALM      30.17F FOG
FT INDIANTOWN  CLOUDY    45 N/A N/A NE3       30.16F
CAPITAL CITY   CLOUDY    47  45  93 E3        30.17R
HARRISBURG     CLOUDY    45  43  93 SE5       30.16S
YORK           CLOUDY    46  45  96 E3        30.16S
$$

PAZ038>040-043-044-047-048-054-055-060>062-067>071-250300-
EASTERN PENNSYLVANIA

CITY           SKY/WX    TMP DP  RH WIND       PRES   REMARKS
SCRANTON       CLOUDY    41  39  93 NE6       30.18F
MOUNT POCONO   FOG       38  38 100 E3        30.15F VSB 3/4
ALLENTOWN      CLOUDY    45  42  89 NE7       30.19R
QUAKERTOWN*    CLOUDY    45  45 100 CALM      30.18S
READING        CLOUDY    45  45 100 N3        30.17S
LANCASTER      CLOUDY    46  44  93 E6        30.17S
COATESVILLE    CLOUDY    45  43  93 E6G13     30.17S
POTTSTOWN      CLOUDY    45  44  97 NE5       30.18S
BLUE BELL      CLOUDY    45  43  93 E3        30.19R
DOYLESTOWN     CLOUDY    45  43  93 CALM      30.17R
WILLOW GROVE   NOT AVBL
NORTH PHILA    CLOUDY    49  45  86 E5        30.20R
PHILADELPHIA   CLOUDY    48  44  86 NE9       30.18S
$$




USA.gov is the U.S. government's official web portal to all federal, state and local government web resources and services.